Location: Eckley Miners' Village
(40.9930°N, 75.8630°W)
Time: 16:21:26
(UTC-05:00)

BlueWalker 3 - Pass Details

Date: 14 December 2023
Orbit: 486 x 500 km, 53.2° (Epoch: 26 February)

Event Time Altitude Azimuth Distance (km) Brightness Sun altitude
Rises 17:37:32 0° 196° (SSW) 2,584 6.1 -11.3°
Reaches altitude 10° 17:40:02 10° 181° (S) 1,707 4.9 -11.8°
Maximum altitude 17:43:03 22° 129° (SE) 1,147 3.5 -12.3°
Enters shadow 17:44:39 17° 96° (E) 1,331 3.5 -12.6°
